Volver al catálogo

MOMENTUS-X1

ActivoCienciaPO
NORAD 44408·PAYLOAD·🇺🇸 United States

Lanzado Jul 5, 2019 desde Vostochny Cosmodrome

Loading…

Próximos Pases (próximas 24 horas)

TLE

ActualizadoSource: Space-Track

Época: Sep 14, 2026, 02:45 UTC

1 44408U 19038Y   26257.11464075  .00062388  00000-0  41557-3 0  9993
2 44408  97.6627 311.1507 0005854  53.2511 306.9290 15.75197972400518

Sigue MOMENTUS-X1 en tiempo real con AllMySat

Download on the App Store